[[[{"header":{"parameterUnit":"kt","parameterCategory":2,"dx":1,"dy":1,"la1":30.253999710083008,"la2":30.299108505249023,"lo1":-89.0895004272461,"lo2":-89.04439544677734,"nx":28,"ny":28,"refTime":"2022-09-26T21:00:00:Z","depth":0,"parameterNumber":1,"parameterNumberName":"U-component_of_WINDS"},"data":[0.2006,0.2015,0.2061,0.2093,0.2139,0.2169,0.2194,0.2232,0.2274,0.2316,0.2349,0.2396,0.2457,0.2507,0.2545,0.2566,0.2577,0.2549,0.2577,0.2666,0.2682,0.2696,0.2696,0.2551,0.2551,0.2477,0.2476,0.2476,0.2071,0.2117,0.2147,0.2206,0.2233,0.2289,0.2342,0.236,0.2385,0.2437,0.2471,0.2512,0.255,0.2622,0.2667,0.2673,0.2701,0.2682,0.268,0.2689,0.2787,0.2786,0.2658,0.2658,0.2658,0.2658,0.2658,0.2658,0.2201,0.2204,0.2266,0.23,0.2342,0.2382,0.2394,0.2451,0.2482,0.2533,0.2582,0.2611,0.2672,0.2748,0.2785,0.281,0.284,0.2832,0.283,0.2826,0.2815,0.2914,0.282,0.2821,0.2821,0.2822,0.2822,0,0.2309,0.2347,0.2378,0.2423,0.2449,0.2489,0.2532,0.2541,0.2637,0.2657,0.2692,0.2719,0.2774,0.2812,0.2864,0.2904,0.2962,0.2974,0.2969,0.2943,0.2915,0.2928,0.3084,0.2975,0.2977,0.2978,0.2979,0.2979,0.2441,0.244,0.2527,0.2543,0.2577,0.2602,0.2626,0.271,0.2732,0.2799,0.2798,0.2837,0.2872,0.292,0.2987,0.3028,0.3056,0.3009,0.3062,0.3039,0.3053,0.3051,0.3051,0.2995,0.2993,0.2992,0.299,0,0.2511,0.2585,0.2597,0.2683,0.2705,0.2699,0.2773,0.2781,0.2836,0.2853,0.2863,0.2948,0.298,0.3055,0.3107,0.3145,0.3139,0.3167,0.3119,0.3128,0.3092,0.3093,0.2967,0.2955,0.3108,0.3107,0.3105,0,0.2651,0.2646,0.2756,0.2759,0.2757,0.2841,0.2837,0.2883,0.2936,0.2951,0.303,0.3042,0.3136,0.316,0.3216,0.3224,0.3235,0.3263,0.3277,0.3254,0.325,0.3264,0.327,0.3312,0.3313,0.3314,0.3314,0,0.275,0.2803,0.281,0.2833,0.2923,0.2925,0.2962,0.3022,0.3044,0.3085,0.3101,0.3143,0.3166,0.3198,0.3269,0.3301,0.3281,0.3341,0.331,0.3308,0.3299,0.3297,0.3171,0.3315,0.3315,0.3315,0.3315,0,0.2873,0.2913,0.2911,0.2988,0.2998,0.3002,0.3049,0.307,0.3126,0.3162,0.3195,0.3255,0.3269,0.3323,0.3344,0.3367,0.3385,0.3414,0.3413,0.3416,0.3473,0.3388,0.3262,0.325,0.3423,0.3424,0.3425,0,0.2966,0.2983,0.3054,0.3051,0.3069,0.3155,0.3162,0.3209,0.3257,0.328,0.3333,0.3358,0.3414,0.3432,0.3433,0.3488,0.3459,0.3495,0.3525,0.3525,0.3505,0.3391,0.3351,0.3282,0.3438,0.3436,0.3436,0,0.3046,0.3154,0.3148,0.3179,0.3253,0.3268,0.3276,0.3319,0.333,0.3374,0.3382,0.342,0.3464,0.3492,0.3545,0.3541,0.3481,0.3588,0.3591,0.3564,0.3451,0.3414,0.3402,0.3518,0.3516,0.3515,0.3445,0,0.3213,0.323,0.3218,0.328,0.3304,0.3305,0.3383,0.3398,0.3447,0.3496,0.351,0.3566,0.3609,0.3616,0.3662,0.3631,0.3647,0.3693,0.3747,0.3673,0.3651,0.3643,0.3773,0.3775,0.3777,0.3778,0,0,0.3282,0.3308,0.3384,0.3393,0.3418,0.3506,0.35,0.3535,0.36,0.3615,0.3647,0.3706,0.375,0.3758,0.3741,0.3759,0.376,0.3782,0.3708,0.37,0.3693,0.3668,0.3658,0.3782,0.3782,0.3783,0.3783,0,0.3358,0.3401,0.3394,0.3433,0.3492,0.3545,0.3543,0.3617,0.3648,0.3661,0.3733,0.375,0.3794,0.3831,0.3856,0.3784,0.3836,0.3792,0.3727,0.3723,0.3713,0.3704,0.3677,0.3667,0.3788,0.3787,0.3787,0,0.3449,0.3503,0.3508,0.3567,0.3606,0.3622,0.3699,0.3712,0.3725,0.3819,0.383,0.3871,0.3927,0.3925,0.3926,0.3955,0.39,0.3931,0.3922,0.3923,0.3923,0.391,0.3899,0.4047,0.4048,0.4048,0,0,0.3503,0.3519,0.3603,0.3588,0.3608,0.3685,0.3701,0.375,0.3798,0.3817,0.387,0.3914,0.3942,0.3957,0.3986,0.3973,0.399,0.396,0.3948,0.3937,0.3932,0.3929,0.3917,0.4051,0.4051,0.4051,0,0,0.3529,0.3624,0.3664,0.3657,0.3701,0.3781,0.3769,0.382,0.3853,0.3861,0.3944,0.396,0.3959,0.3996,0.4017,0.4006,0.406,0.4056,0.3981,0.3967,0.3955,0.3945,0.4102,0,0,0,0,0,0.3644,0.3613,0.3648,0.3658,0.3731,0.3762,0.3772,0.3839,0.3876,0.3866,0.3919,0.3973,0.4025,0.4045,0.4054,0.4029,0.4079,0.4074,0.4069,0.397,0.3954,0.3941,0,0,0,0,0,0,0.3649,0.3661,0.3649,0.3727,0.3744,0.3763,0.384,0.3858,0.3879,0.3889,0.3961,0.3975,0.4033,0.4045,0.4052,0.4027,0.41,0.4077,0.4073,0.4069,0.3965,0.3952,0.3941,0,0,0,0,0,0.3653,0.3663,0.3762,0.3728,0.3743,0.3825,0.3842,0.3857,0.3875,0.3955,0.3971,0.3924,0.403,0.4041,0.405,0.4022,0.4096,0.4098,0.4074,0.4071,0.4068,0.3958,0,0,0,0,0,0,0.3656,0.3677,0.3766,0.3773,0.3744,0.3826,0.3841,0.3856,0.3941,0.3956,0.3922,0.3929,0.4028,0.4037,0.4045,0.4016,0.4092,0.4094,0.4096,0.4072,0.4069,0.4067,0,0,0,0,0,0,0.3672,0.3682,0.377,0.3787,0.3796,0.3825,0.3839,0.3856,0.3941,0.3903,0.3912,0.3924,0.4017,0.4034,0.404,0.4064,0.4089,0.4092,0.4093,0.4094,0.407,0.4068,0,0,0,0,0,0,0.3678,0.3687,0.3785,0.3792,0.3801,0.3886,0.3842,0.3913,0.3955,0.3898,0.3961,0.3963,0.4012,0.402,0.4037,0.4057,0.4062,0.4089,0.4091,0.4092,0.4093,0,0,0,0,0,0,0,0.3682,0.3607,0.3724,0.3797,0.3805,0.3839,0.3841,0.3843,0.3956,0.3958,0.396,0.3962,0.4076,0.4079,0.4081,0.4052,0,0,0.4089,0.409,0,0,0,0,0,0,0,0,0.3605,0.3607,0.3724,0.3726,0.3727,0.3839,0.3841,0.3842,0.3956,0.3958,0.396,0.3961,0.4077,0.4079,0.4081,0,0,0,0,0,0,0,0,0,0,0,0,0,0,0,0.3724,0.3726,0,0.384,0.3841,0.3842,0.3956,0.3958,0.3959,0.3961,0.4078,0.4079,0.4081,0,0,0,0,0,0,0,0,0,0,0,0,0,0,0,0,0,0,0,0,0,0,0,0,0,0,0,0,0,0,0,0,0,0,0,0,0,0,0,0,0,0,0,0,0,0,0,0,0,0,0,0,0,0,0,0,0,0,0,0,0,0,0,0,0,0,0,0,0]}],[{"header":{"parameterUnit":"kt","parameterCategory":2,"dx":1,"dy":1,"la1":30.253999710083008,"la2":30.299108505249023,"lo1":-89.0895004272461,"lo2":-89.04439544677734,"nx":28,"ny":28,"refTime":"2022-09-26T21:00:00:Z","depth":0,"parameterNumber":2,"parameterNumberName":"V-component_of_WINDS"},"data":[0.2294,0.2368,0.2328,0.2395,0.2371,0.2409,0.241,0.2408,0.2398,0.244,0.2457,0.2428,0.2403,0.2416,0.2434,0.242,0.2428,0.2479,0.2454,0.2258,0.2228,0.22,0.2176,0.2484,0.2484,0.2659,0.266,0.2662,0.2143,0.212,0.2146,0.2144,0.2164,0.2089,0.2083,0.2105,0.2142,0.2132,0.2149,0.2184,0.2208,0.2166,0.2183,0.2216,0.2181,0.2222,0.2216,0.2212,0.2003,0.1979,0.2249,0.2249,0.2249,0.2249,0.2249,0.2249,0.1857,0.1904,0.188,0.1907,0.1897,0.1897,0.1935,0.1898,0.1924,0.1937,0.189,0.1933,0.1916,0.1921,0.1915,0.1946,0.1894,0.1928,0.1935,0.1942,0.1953,0.1691,0.195,0.1949,0.1948,0.1947,0.1946,0,0.1633,0.1596,0.162,0.1631,0.165,0.1657,0.1657,0.1681,0.1596,0.1622,0.1656,0.167,0.1698,0.1725,0.1735,0.1722,0.1647,0.1639,0.166,0.1678,0.1691,0.1677,0.133,0.1631,0.1628,0.1626,0.1625,0.1624,0.1333,0.1398,0.1357,0.1378,0.1369,0.1408,0.1422,0.1343,0.1362,0.1352,0.14,0.1428,0.1446,0.1511,0.1469,0.1491,0.1454,0.1571,0.1457,0.1471,0.1446,0.144,0.1442,0.1594,0.1597,0.1601,0.1603,0,0.1167,0.1105,0.1193,0.1148,0.1138,0.121,0.117,0.1218,0.1178,0.1237,0.1247,0.1185,0.1222,0.1162,0.1195,0.1162,0.1272,0.1241,0.1274,0.1261,0.1355,0.1344,0.1683,0.172,0.1409,0.1412,0.1415,0,0.0884,0.0974,0.0875,0.093,0.1024,0.0942,0.1038,0.1014,0.0999,0.1045,0.0952,0.0998,0.0914,0.0951,0.0904,0.0985,0.0994,0.097,0.0955,0.0975,0.0977,0.0981,0.0963,0.093,0.0928,0.0927,0.0925,0,0.0624,0.0681,0.077,0.0772,0.0736,0.078,0.0767,0.0752,0.0769,0.0783,0.0792,0.0817,0.0828,0.0848,0.0784,0.0708,0.0886,0.0768,0.0861,0.0863,0.09,0.0898,0.1217,0.0923,0.0923,0.0922,0.0922,0,0.0385,0.0399,0.0541,0.0505,0.0523,0.0586,0.0599,0.0639,0.063,0.0602,0.0614,0.0544,0.0616,0.0501,0.0597,0.0514,0.053,0.0517,0.0523,0.052,0.0392,0.0572,0.0889,0.0916,0.0523,0.052,0.0517,0,0.0099,0.0228,0.0157,0.0296,0.0345,0.0232,0.03,0.0296,0.0265,0.0303,0.0269,0.0316,0.0219,0.0225,0.0282,0.0248,0.0358,0.0233,0.0284,0.0287,0.028,0.0573,0.0631,0.0827,0.0474,0.0479,0.0482,0,-0.0131,-0.0175,-0.0144,-0.0148,-0.0164,-0.012,-0.004,-0.0013,0.0014,0.0026,0.0086,0.0156,0.0081,0.0096,0.0043,0.0105,0.0281,0.0019,0.0017,0.0062,0.0451,0.0504,0.0538,0.0232,0.0237,0.0241,0.0448,0,-0.0494,-0.0434,-0.0353,-0.0347,-0.0322,-0.0234,-0.03,-0.0265,-0.0322,-0.0356,-0.0262,-0.0274,-0.0242,-0.0216,-0.0267,-0.0104,-0.0142,-0.0218,-0.0337,-0.0141,-0.0076,-0.0048,-0.0431,-0.0435,-0.0438,-0.0441,0,0,-0.0756,-0.0672,-0.0749,-0.0675,-0.066,-0.0777,-0.0679,-0.0676,-0.0664,-0.0652,-0.0718,-0.0622,-0.0628,-0.0506,-0.045,-0.0433,-0.0412,-0.0475,-0.0232,-0.0209,-0.0187,-0.0115,-0.0085,-0.0446,-0.0447,-0.0449,-0.045,0,-0.0905,-0.091,-0.0811,-0.0813,-0.0817,-0.0858,-0.0834,-0.0858,-0.0875,-0.0779,-0.0877,-0.0826,-0.0741,-0.074,-0.0727,-0.0491,-0.0568,-0.0475,-0.0331,-0.0262,-0.0234,-0.021,-0.0134,-0.0104,-0.0457,-0.0457,-0.0457,0,-0.1149,-0.1168,-0.1125,-0.1091,-0.1093,-0.1034,-0.1177,-0.1105,-0.1063,-0.119,-0.1094,-0.1108,-0.1106,-0.0979,-0.0923,-0.0982,-0.0707,-0.08,-0.0782,-0.0778,-0.0714,-0.0681,-0.0651,-0.1046,-0.1048,-0.105,0,0,-0.1268,-0.121,-0.1254,-0.1127,-0.1122,-0.118,-0.1153,-0.1207,-0.1204,-0.1202,-0.1223,-0.1216,-0.117,-0.1136,-0.1095,-0.0943,-0.0953,-0.087,-0.0843,-0.082,-0.0804,-0.0734,-0.07,-0.1057,-0.1057,-0.1057,0,0,-0.1324,-0.1371,-0.1429,-0.129,-0.1285,-0.1318,-0.1238,-0.1309,-0.1278,-0.1295,-0.1378,-0.1379,-0.126,-0.1269,-0.1354,-0.1139,-0.1255,-0.1236,-0.1139,-0.1104,-0.1077,-0.108,-0.15,0,0,0,0,0,-0.151,-0.1367,-0.1418,-0.1404,-0.1357,-0.129,-0.1284,-0.1351,-0.1435,-0.1371,-0.14,-0.1481,-0.1334,-0.1412,-0.1396,-0.13,-0.1145,-0.113,-0.1115,-0.0955,-0.0918,-0.0887,0,0,0,0,0,0,-0.1505,-0.1488,-0.1422,-0.1447,-0.1438,-0.1295,-0.1453,-0.1467,-0.1444,-0.1461,-0.1474,-0.1482,-0.1536,-0.1424,-0.1409,-0.1317,-0.1506,-0.1139,-0.1126,-0.1114,-0.0942,-0.0912,-0.0887,0,0,0,0,0,-0.1502,-0.1488,-0.1394,-0.145,-0.1441,-0.1497,-0.1459,-0.1472,-0.1455,-0.1498,-0.1509,-0.1508,-0.1531,-0.1523,-0.1415,-0.1323,-0.1517,-0.1511,-0.1131,-0.112,-0.1111,-0.0928,0,0,0,0,0,0,-0.1499,-0.1499,-0.1394,-0.1394,-0.1509,-0.1507,-0.1509,-0.1476,-0.1494,-0.1504,-0.1537,-0.155,-0.1526,-0.1521,-0.1514,-0.1321,-0.1526,-0.152,-0.1516,-0.1123,-0.1114,-0.1107,0,0,0,0,0,0,-0.1507,-0.1498,-0.1394,-0.1465,-0.1474,-0.1515,-0.1517,-0.1432,-0.1493,-0.1533,-0.1545,-0.1543,-0.1536,-0.1518,-0.1513,-0.1379,-0.1533,-0.1527,-0.1523,-0.1521,-0.1116,-0.1109,0,0,0,0,0,0,-0.1505,-0.1497,-0.1466,-0.1472,-0.148,-0.1484,-0.1442,-0.1388,-0.1556,-0.153,-0.1573,-0.158,-0.1531,-0.1528,-0.1512,-0.138,-0.1379,-0.1533,-0.1529,-0.1526,-0.1524,0,0,0,0,0,0,0,-0.1502,-0.1537,-0.1395,-0.1478,-0.1485,-0.1393,-0.1393,-0.1393,-0.1558,-0.1564,-0.1571,-0.1577,-0.1566,-0.156,-0.1553,-0.138,0,0,-0.1533,-0.1531,0,0,0,0,0,0,0,0,-0.1542,-0.1538,-0.1395,-0.1395,-0.1395,-0.1393,-0.1393,-0.1393,-0.1559,-0.1564,-0.157,-0.1575,-0.1565,-0.1559,-0.1554,0,0,0,0,0,0,0,0,0,0,0,0,0,0,0,-0.1395,-0.1395,0,-0.1393,-0.1393,-0.1393,-0.156,-0.1564,-0.1568,-0.1573,-0.1563,-0.1559,-0.1555,0,0,0,0,0,0,0,0,0,0,0,0,0,0,0,0,0,0,0,0,0,0,0,0,0,0,0,0,0,0,0,0,0,0,0,0,0,0,0,0,0,0,0,0,0,0,0,0,0,0,0,0,0,0,0,0,0,0,0,0,0,0,0,0,0,0,0,0,0]}]]]